Flag for U.S.A. Weather past 2 weeks in Wainwright, Alaska, U.S.A.

Now
19 °F

Overcast.


Feels Like: 3 °F
Forecast: 19 / 26 °F
Wind: 18 mph from East

Location: Wainwright Distant Early Warning

Current Time: Oct 22, 2014 at 5:47:15 PM

Latest Report: Oct 22, 2014 at 4:53 PM


Visibility: 10 mi

Pressure: 30.05 "Hg

Humidity: 85%

Dew point: 15 °F

Location of WainwrightLocation

Historic Weather in Wainwright — Graph

°F

Wainwright temperature yesterday

Maximum temperature yesterday: 20 °F (at 9:53 PM)
Minimum temperature yesterday: 15 °F (at 12:53 AM)
Average temperature yesterday: 17 °F

Past Weeks' High & Low Weather Summary

 TemperatureHumidityPressure
High31 °F (Oct 8, 1:53 PM)96% (Oct 8, 1:53 AM)30.34 "Hg (Oct 8, 1:53 AM)
Low15 °F (Oct 20, 11:53 PM)64% (Oct 8, 4:53 AM)29.76 "Hg (Oct 20, 8:01 AM)
Average23 °F83%29.96 "Hg
* Reported Oct 7 4:53 PM — Oct 22 4:53 PM, Wainwright, Weather by CustomWeather, © 2014

Note: Actual official high and low records may vary slightly from our data, if they occured in-between our weather recording intervals... More about our weather records

Advertising

Wainwright weather history for previous 24 hours

 ConditionsComfort  
Time TempWeatherWind HumidityBarometerVisibility
4:53 PM
Oct 22
19 °FOvercast.18 mph85%30.05 "Hg10 mi
3:53 PM20 °FIce fog.21 mph85%30.04 "Hg4 mi
2:53 PM20 °FIce fog.24 mph85%30.04 "Hg2 mi
1:53 PM20 °FIce fog.18 mph85%30.04 "Hg6 mi
12:53 PM20 °FLight snow. Ice fog.17 mph85%30.05 "Hg1 mi
11:53 AM19 °FLight snow. Ice fog.18 mph85%30.04 "Hg3 mi
10:53 AM20 °FIce fog.17 mph89%30.04 "Hg2 mi
9:53 AM20 °FLight snow. Ice fog.17 mph89%30.03 "Hg2 mi
8:53 AM20 °FLight snow. Ice fog.20 mph89%30.03 "Hg4 mi
7:53 AM20 °FIce fog.17 mph85%30.03 "Hg5 mi
6:53 AM20 °FIce fog.22 mph85%30.03 "Hg5 mi
5:53 AM20 °FOvercast.16 mph85%30.02 "Hg8 mi
4:53 AM20 °FIce fog.21 mph85%30.02 "Hg6 mi
3:53 AM20 °FIce fog.22 mph85%30.01 "Hg5 mi
2:53 AM20 °FLight snow. Ice fog.23 mph85%30.02 "Hg3 mi
1:53 AM20 °FLight snow. Ice fog.17 mph85%30.02 "Hg2 mi
12:53 AM20 °FLight snow. Ice fog.20 mph85%30.01 "Hg3 mi
11:53 PM
Oct 21
20 °FLight snow. Ice fog.18 mph89%30.01 "Hg3 mi
10:53 PM20 °FLight snow. Ice fog.18 mph85%30.01 "Hg5 mi
9:53 PM20 °FLight snow. Overcast.14 mph85%30.01 "Hg7 mi
8:53 PM19 °FLight snow. Overcast.14 mph81%30.01 "Hg5 mi
7:53 PM19 °FLight snow. Overcast.20 mph81%30.00 "Hg6 mi
6:53 PM19 °FLight snow. Overcast.21 mph81%29.99 "Hg7 mi
5:53 PM16 °FLight snow. Ice fog.17 mph84%29.99 "Hg4 mi
Weather by CustomWeather, © 2014

See weather overviewHow to use our weather pages